Погода Назимово

Погода Назимово : погода сейчас, прогноз погоды и архив. Всё, что Вы хотите узнать о погоде Назимово!

Поиск расширенной информации на нашем сайте:

Другие новости

Новости СМИ2

Главная страница сайта

Новости сайта

03.07.2017

Напоминаем, что на нашем специализированном сайте Метеоцентр.Азия вы можете получить высокодетализированные автоматические прогнозы погоды по пунктам России, СНГ и мира в авиационном формате (включающие направление и скорость ветра, видимость, явления погоды, количество и форму облачности, нижнюю и верхнюю границу облачности).


Погода Назимово - сегодня

Время (UTC), дата Ветер
(°,м/с) 
Видим.   Явления Облачность Т
(°С)
Тd
(°С)
f(%) Тe
(°С)
Pmin
(гПа)
dP
(гПа)
Po
(мм)
O2
(г/м3)
Тmin Tmax R s Состояние
почвы
21 18.05.18 110 (В) н/о    10/10 2000 м 
[As trans]
-2.5 -6.5 74 -2  1014.6  -1.3  755  308           
00 19.05.18 100 (В) 20000 м    10/10 2000 м 
[As trans]
-0.6 -6.9 62 -3  1013.4  -1.1  754  305  -3.3        замёрзшая 
03 19.05.18 100 (В) 20000 м    10/10 2000 м 
[As trans]
+1.4 -8.2 49 -1  1011.9  -1.4  753  303           
06 19.05.18 090 (В) 10 км  слаб. дождь со снегом  10/10 2000 м 
[Ns]
+0.6 -4.4 69 -2  1011.3  -0.7  752  303           
09 19.05.18 030 (СВ) 2000 м  дождь со снегом  10/10 2000 м 
[Ns]
+0.6 -0.8 90 +1  1011.9  0.6  753  303           
12 19.05.18 020 (С) 4000 м  слаб. ливневой дождь со снегом  10/10 600 м кучево-дожд. 
[Cb cap]
+0.6 -0.5 92 +1  1013  1.1  753  303    +1.7     
15 19.05.18 220 (ЮЗ) н/о  {ливн. осадки}  10/10 600 м кучево-дожд. 
[Cb cap]
+0.7 -0.4 92 1014.1  1.1  754  303           
18 19.05.18 320 (СЗ) н/о  {ливн. осадки}  10/10 600 м кучево-дожд. 
[Cb cap]
+0.5 -1.5 86 1014.6  0.5  755  304           
21 19.05.18 340 (С) н/о    10/10 1000 м 
[Sc]
+1 -1 86 -1  1014.7  0.1  755  303           
00 20.05.18 340 (С) 5-11{11}  20000 м    10/10 2000 м 
[Ac und]
+1 -5.4 62 -2  1016  1.3  756  304  +0.5    0.0  мокрый или
старый снег
10-40% 
09 20.05.18 340 (С) 4{13}  20000 м    8/8 2000 м средняя 
[Ac lent]
+10.2 -7.5 28 +9  1018.9  1.3  758  295           
15 20.05.18 280 (З) н/о    ясно 
-0.2 -0.3 99 -1  1019.6  0.7  751  303           
18 20.05.18 000 (С) <0100 м    1/1 <0100 м 
-0.1   1000.1  743             
21 20.05.18 тихо ()   н/о    ясно 
-0.1 -1.5 90 -0  1002.2  -1.1  751  303           
03 21.05.18 130 (ЮВ) 20000 м    ясно 
+7 -3.3 48 +5  1017.2  -1.7  757  298           
06 21.05.18 170 (Ю) 20000 м    10/0 верхняя 
[Cs]
+10.6 -0.8 45 +9  1013.2  -1.1  754  292           
09 21.05.18 200 (Ю) 3{13}  н/о    н/о 
+9.8 +0.6 53 +9               
18 21.05.18 140 (ЮВ) н/о  слаб. ливневой дождь  10/10 300 м кучево-дожд. 
[Cb cap]
+6.7 +5.8 94 +6  1003.3  -3.6  746  293           
21 21.05.18 130 (ЮВ) н/о  ливневой дождь  10/10 600 м кучево-дожд. 
[Cb cap]
+6.7 +6.3 97 +7  1000.1  -3.1  744  292           
00 22.05.18 120 (ЮВ) 2000 м  дымка{ливн. осадки}  10/10 600 м кучево-дожд. 
[Cb cap]
+6.6 +6.4 99 +6  998.1  -2  743  291  +6.5    10    мокрая 
03 22.05.18 320 (СЗ) 10 км  слаб. ливневой дождь{туман}  10/10 300 м кучево-дожд. 
[Cb cap]
+6.1 +5.4 95 +5  1000.2  744  292           
09 22.05.18 340 (С) 10 км  слаб. ливневой дождь  10/10 600 м кучево-дожд. 
[Cb cap]
+6.6 +4 83 +6  1001.4  0.2  745  292           
12 22.05.18 340 (С) 20000 м  в посл. час ливневой дождь  10/10 600 м кучево-дожд. 
[Cb cap]
+6.9 +4.1 82 +8  1000.5  -0.8  744  292    +8.3     
15 22.05.18 340 (С) н/о  слаб. ливневой дождь  10/10 600 м кучево-дожд. 
[Cb cap]
+5.4 +3 84 +6  1000.1  -0.5  744  293           
18 22.05.18 300 (СЗ) н/о  слаб. ливневой дождь  10/10 600 м кучево-дожд. 
[Cb cap]
+3 +1.5 90 +4  999.6  -0.6  744  296           
Время (UTC), дата Ветер
(°,м/с) 
Видим.   Явления Облачность Т
(°С)
Тd
(°С)
f(%) Тe
(°С)
Pmin
(гПа)
dP
(гПа)
Po
(мм)
O2
(г/м3)
Тmin Tmax R s Состояние
почвы

Для получения пояснительной информации подведите курсор к названию столбца.

ПОГОДА Назимово - архив

Всё, что Вы хотите узнать о погоде Назимово - удобно и подробно!

Выберите нужную дату (начиная с 1 января 2015* года) и нажмите кнопку "Найти".
Будут отображены архивные сводки погоды по пункту Назимово, начиная с указанной даты.


Отображать данные в формате CSV (для использования в таблицах Excel)


Внимание! Наш архив погоды предназначен исключительно для личного некоммерческого использования в познавательных целях. Если Вам необходимы официальные справки о состоянии погоды (для производственных, юридических, коммерческих и т.п. целей), обращайтесь в органы Росгидромета.

*Примечание: данная дата относится к архиву по метеостанциям СССР (Россия, СНГ, Балтия).
Архив по метеостанциям Зарубежной Европы и Азии (кроме Китая) хранится 10 дней, по другим регионам земного шара (Китай, Африка, Америка, Австралия, Океания) - 1 день.

Назимово - район местоположения метеостанции


Название, широта, долгота, высота метеостанции:
Назимово 59.5°ш. 91°д. 67 м над ур. моря [Российская Федерация]

Дополнительная информация

В oтличие oт бoльшинства пoгoдных сайтoв мы публикуем пoдрoбную метеoинфoрмацию в детальнoм прoфессиoнальнoм фoрмате.

Характеристики температуры и влажнoсти вoздуха измеряются на высoте 2 м в тени вдали oт зданий и деревьев.
Скoрoсть ветра измеряется на высoте 10 м (на урoвне рoста челoвека скoрoсть ветра ниже в 1.5-2 раза). Если метеoстанция нахoдится в гoрoде или в лесу, тo скoрoсть ветра занижена на 2-4 м/с пo сравнению с oткрытым местoм. Скoрoсть ветра над акватoриями крупных рек и oзёр, а также на вершинах хoлмoв на 2-5 м/с выше, чем в oбычных услoвиях.
Атмoсфернoе давление в разных тoчках местнoсти мoжет значительнo oтличаться oт давления на метеoстанции, в зависимoсти oт услoвий рельефа (при пoдъёме на 10 м давление пoнижается примернo на 1 мм рт.ст.).